THY2JR LTFE-UUWW

Flight info

Callsign THY2JR
Flight time 4h 8m
Altitude 32000
Route AKBUK UG80 IMR UN127 LMO UN128 PEREN/N0414F240 N133 ATFIR/N0457F320 N133 OGOTA/N0459F340 N133 LOMOS DCT SODGO DCT BADOR DCT KEKED/N0456F330 DCT PODAN M857 SUMAM/N0456F350 M857 SUWGI DCT VABER DCT BADUS/K0841F350 DCT MOSON T52 BILRU BILRU3A
Aircraft A321/M-SDE3FGHIRWY/LB1

Departure

Time 2026-05-01 09:37
Airport Milas Bodrum International Airport (LTFE)

Arrival

Time 2026-05-01 13:46
Airport Vnukovo International Airport (UUWW)
Time Latitude Longitude Altitude Speed Heading
2026-05-01 09:15 37.24396 27.67778 29 ft 0 kts 197°
2026-05-01 09:31 37.24399 27.67779 30 ft 2 kts 197°
2026-05-01 09:31 37.24436 27.67793 30 ft 2 kts 197°
2026-05-01 09:32 37.24452 27.67800 30 ft 3 kts 212°
2026-05-01 09:32 37.24466 27.67834 30 ft 3 kts 292°
2026-05-01 09:32 37.24456 27.67857 30 ft 3 kts 301°
2026-05-01 09:33 37.24447 27.67878 30 ft 2 kts 291°
2026-05-01 09:33 37.24445 27.67885 30 ft 0 kts 287°
2026-05-01 09:35 37.24466 27.67801 30 ft 18 kts 287°
2026-05-01 09:35 37.24503 27.67651 30 ft 12 kts 300°
2026-05-01 09:36 37.24587 27.67652 31 ft 16 kts 17°
2026-05-01 09:36 37.24661 27.67665 32 ft 9 kts 344°
2026-05-01 09:36 37.24684 27.67599 32 ft 12 kts 285°
2026-05-01 09:36 37.24755 27.67303 31 ft 68 kts 287°
2026-05-01 09:37 37.24952 27.66479 28 ft 127 kts 287°
2026-05-01 09:37 37.25570 27.63862 821 ft 159 kts 283°
2026-05-01 09:37 37.25863 27.62526 1392 ft 161 kts 285°
2026-05-01 09:38 37.26475 27.59510 1883 ft 194 kts 284°
2026-05-01 09:38 37.26828 27.57791 2068 ft 215 kts 285°
2026-05-01 09:38 37.27223 27.55892 2257 ft 240 kts 285°
2026-05-01 09:39 37.28103 27.51642 3385 ft 257 kts 284°
2026-05-01 09:39 37.28551 27.49455 4078 ft 259 kts 284°
2026-05-01 09:39 37.29000 27.47254 4869 ft 261 kts 284°
2026-05-01 09:40 37.29484 27.45061 5606 ft 261 kts 291°
2026-05-01 09:40 37.31965 27.41828 6912 ft 270 kts 335°
2026-05-01 09:40 37.33824 27.41379 7526 ft 278 kts 359°
2026-05-01 09:41 37.35728 27.41953 8123 ft 289 kts 24°
2026-05-01 09:41 37.39070 27.44972 9299 ft 303 kts 39°
2026-05-01 09:41 37.40689 27.46680 9872 ft 304 kts 28°
2026-05-01 09:42 37.42595 27.47845 10198 ft 311 kts 12°
2026-05-01 09:42 37.44762 27.48281 10330 ft 321 kts 355°
2026-05-01 09:42 37.49124 27.46666 10585 ft 343 kts 327°
2026-05-01 09:43 37.53600 27.43824 10884 ft 375 kts 332°
2026-05-01 09:43 37.55999 27.42463 11348 ft 380 kts 332°
2026-05-01 09:43 37.57605 27.41574 11683 ft 383 kts 333°
2026-05-01 09:44 37.63309 27.38412 13010 ft 388 kts 332°
2026-05-01 09:44 37.65795 27.37035 13606 ft 391 kts 332°
2026-05-01 09:44 37.68302 27.35667 14141 ft 394 kts 332°
2026-05-01 09:45 37.70828 27.34297 14624 ft 397 kts 332°
2026-05-01 09:45 37.75073 27.31991 15526 ft 402 kts 332°
2026-05-01 09:45 37.77652 27.30584 16032 ft 405 kts 332°
2026-05-01 09:46 37.80251 27.29162 16562 ft 408 kts 332°
2026-05-01 09:46 37.82866 27.27730 17071 ft 411 kts 332°
2026-05-01 09:46 37.85503 27.26285 17598 ft 415 kts 331°
2026-05-01 09:46 37.88157 27.24826 18043 ft 417 kts 331°
2026-05-01 09:47 37.90823 27.23354 18471 ft 420 kts 331°
2026-05-01 09:47 37.93508 27.21870 18882 ft 422 kts 331°
2026-05-01 09:47 37.96208 27.20383 19267 ft 424 kts 331°
2026-05-01 09:47 37.98928 27.18888 19663 ft 426 kts 331°
2026-05-01 09:48 38.01654 27.17391 20016 ft 428 kts 331°
2026-05-01 09:48 38.04395 27.15882 20396 ft 430 kts 331°
2026-05-01 09:48 38.07143 27.14368 20792 ft 431 kts 331°
2026-05-01 09:48 38.09899 27.12846 21133 ft 433 kts 330°
2026-05-01 09:49 38.12666 27.11314 21489 ft 435 kts 330°
2026-05-01 09:49 38.15415 27.09790 21823 ft 438 kts 330°
2026-05-01 09:49 38.18253 27.08214 22154 ft 440 kts 330°
2026-05-01 09:49 38.21026 27.06670 22488 ft 442 kts 330°
2026-05-01 09:50 38.23856 27.05097 22800 ft 445 kts 330°
2026-05-01 09:50 38.26697 27.03516 23120 ft 447 kts 330°
2026-05-01 09:50 38.29552 27.01913 23426 ft 447 kts 328°
2026-05-01 09:50 38.32234 26.99960 23710 ft 442 kts 320°
2026-05-01 09:51 38.34635 26.97552 23989 ft 439 kts 313°
2026-05-01 09:51 38.36942 26.94989 24306 ft 440 kts 313°
2026-05-01 09:51 38.39254 26.92428 24625 ft 441 kts 313°
2026-05-01 09:51 38.41573 26.89864 24964 ft 441 kts 313°
2026-05-01 09:52 38.43888 26.87306 25423 ft 438 kts 313°
2026-05-01 09:52 38.46181 26.84772 25877 ft 435 kts 313°
2026-05-01 09:52 38.48464 26.82246 26331 ft 433 kts 313°
2026-05-01 09:52 38.50731 26.79739 26835 ft 430 kts 313°
2026-05-01 09:53 38.52986 26.77244 27358 ft 427 kts 313°
2026-05-01 09:53 38.55226 26.74761 27812 ft 425 kts 313°
2026-05-01 09:53 38.57448 26.72291 28268 ft 422 kts 313°
2026-05-01 09:53 38.59657 26.69830 28714 ft 420 kts 313°
2026-05-01 09:54 38.61826 26.67413 29150 ft 418 kts 313°
2026-05-01 09:54 38.64012 26.64977 29581 ft 416 kts 313°
2026-05-01 09:54 38.66187 26.62552 30024 ft 414 kts 313°
2026-05-01 09:54 38.68348 26.60143 30400 ft 412 kts 313°
2026-05-01 09:55 38.70506 26.57735 30734 ft 410 kts 312°
2026-05-01 09:55 38.72650 26.55334 31039 ft 409 kts 312°
2026-05-01 09:55 38.74794 26.52930 31337 ft 409 kts 312°
2026-05-01 09:55 38.76934 26.50530 31620 ft 408 kts 312°
2026-05-01 09:56 38.79070 26.48135 31899 ft 408 kts 312°
2026-05-01 09:56 38.81205 26.45737 32178 ft 408 kts 312°
2026-05-01 09:56 38.83334 26.43344 32458 ft 407 kts 312°
2026-05-01 09:56 38.85485 26.40973 32733 ft 408 kts 313°
2026-05-01 09:57 38.87666 26.38641 32989 ft 408 kts 314°
2026-05-01 09:57 38.89862 26.36330 33241 ft 408 kts 314°
2026-05-01 09:57 38.92064 26.34024 33480 ft 408 kts 314°
2026-05-01 09:57 38.94234 26.31747 33718 ft 408 kts 314°
2026-05-01 09:58 38.96428 26.29437 33966 ft 408 kts 314°
2026-05-01 09:58 38.98622 26.27114 34103 ft 409 kts 313°
2026-05-01 09:58 39.03033 26.22417 34135 ft 413 kts 313°
2026-05-01 09:59 39.07459 26.17687 34134 ft 414 kts 313°
2026-05-01 09:59 39.11885 26.12948 34135 ft 414 kts 313°
2026-05-01 10:00 39.16289 26.08233 34138 ft 414 kts 313°
2026-05-01 10:00 39.20724 26.03475 34155 ft 415 kts 313°
2026-05-01 10:01 39.25157 25.98712 34151 ft 415 kts 313°
2026-05-01 10:01 39.29591 25.93940 34156 ft 415 kts 313°
2026-05-01 10:02 39.33981 25.89106 34164 ft 415 kts 313°
2026-05-01 10:02 39.38343 25.84219 34162 ft 415 kts 313°
2026-05-01 10:03 39.42671 25.79350 34180 ft 415 kts 313°
2026-05-01 10:03 39.47044 25.74449 34186 ft 416 kts 313°
2026-05-01 10:04 39.51422 25.69552 34200 ft 416 kts 313°
2026-05-01 10:04 39.55802 25.64633 34204 ft 416 kts 313°
2026-05-01 10:05 39.60182 25.59707 34212 ft 417 kts 313°
2026-05-01 10:05 39.64561 25.54777 34217 ft 417 kts 313°
2026-05-01 10:06 39.68936 25.49842 34225 ft 417 kts 313°
2026-05-01 10:06 39.73313 25.44898 34228 ft 417 kts 313°
2026-05-01 10:07 39.77661 25.39968 34230 ft 417 kts 313°
2026-05-01 10:07 39.82040 25.35006 34229 ft 418 kts 313°
2026-05-01 10:08 39.88615 25.27549 34237 ft 418 kts 313°
2026-05-01 10:09 39.92739 25.22279 34232 ft 411 kts 302°
2026-05-01 10:09 39.96033 25.16217 34237 ft 410 kts 301°
2026-05-01 10:10 39.99328 25.10143 34238 ft 411 kts 301°
2026-05-01 10:10 40.04256 25.01056 34233 ft 411 kts 301°
2026-05-01 10:11 40.07555 24.94943 34241 ft 412 kts 301°
2026-05-01 10:11 40.10854 24.88816 34240 ft 412 kts 301°
2026-05-01 10:12 40.14153 24.82688 34250 ft 413 kts 301°
2026-05-01 10:13 40.19104 24.73458 34254 ft 413 kts 301°
2026-05-01 10:13 40.22400 24.67292 34258 ft 413 kts 301°
2026-05-01 10:14 40.27316 24.58078 34260 ft 413 kts 301°
2026-05-01 10:14 40.30607 24.51901 34254 ft 413 kts 301°
2026-05-01 10:15 40.33898 24.45716 34260 ft 414 kts 301°
2026-05-01 10:15 40.37185 24.39527 34266 ft 414 kts 301°
2026-05-01 10:16 40.40469 24.33322 34263 ft 414 kts 301°
2026-05-01 10:17 40.45390 24.23995 34262 ft 414 kts 301°
2026-05-01 10:17 40.50306 24.14648 34256 ft 415 kts 301°
2026-05-01 10:18 40.55223 24.05272 34263 ft 415 kts 301°
2026-05-01 10:19 40.58996 23.99495 34252 ft 423 kts 317°
2026-05-01 10:19 40.61465 23.97339 34253 ft 430 kts 328°
2026-05-01 10:19 40.64254 23.95826 34246 ft 438 kts 338°
2026-05-01 10:20 40.73321 23.93543 34250 ft 444 kts 344°
2026-05-01 10:20 40.79362 23.92110 34241 ft 444 kts 344°
2026-05-01 10:21 40.88494 23.89925 34257 ft 445 kts 344°
2026-05-01 10:22 40.97647 23.87724 34245 ft 446 kts 344°
2026-05-01 10:23 41.06805 23.85530 34249 ft 446 kts 344°
2026-05-01 10:23 41.14930 23.83577 34241 ft 446 kts 344°
2026-05-01 10:24 41.28174 23.80378 34253 ft 446 kts 344°
2026-05-01 10:25 41.40360 23.77437 34253 ft 444 kts 345°
2026-05-01 10:26 41.46517 23.76353 34259 ft 447 kts 348°
2026-05-01 10:27 41.58921 23.74847 34270 ft 447 kts 348°
2026-05-01 10:28 41.68147 23.73525 34275 ft 446 kts 347°
2026-05-01 10:28 41.77397 23.72176 34275 ft 446 kts 348°
2026-05-01 10:29 41.86662 23.70852 34286 ft 446 kts 348°
2026-05-01 10:30 41.98985 23.69073 34304 ft 445 kts 348°
2026-05-01 10:31 42.11280 23.67316 34311 ft 443 kts 347°
2026-05-01 10:32 42.20419 23.65983 34313 ft 442 kts 347°
2026-05-01 10:33 42.32526 23.63775 34309 ft 432 kts 339°
2026-05-01 10:34 42.41255 23.60754 34304 ft 431 kts 339°
2026-05-01 10:34 42.47057 23.58740 34311 ft 430 kts 339°
2026-05-01 10:35 42.55752 23.55724 34321 ft 430 kts 339°
2026-05-01 10:35 42.61543 23.53717 34324 ft 429 kts 339°
2026-05-01 10:36 42.70225 23.50690 34336 ft 429 kts 339°
2026-05-01 10:37 42.76004 23.48670 34332 ft 429 kts 339°
2026-05-01 10:37 42.84663 23.45641 34335 ft 428 kts 338°
2026-05-01 10:38 42.90439 23.43616 34331 ft 428 kts 338°
2026-05-01 10:38 42.96207 23.41590 34336 ft 428 kts 338°
2026-05-01 10:39 43.01976 23.39554 34337 ft 428 kts 338°
2026-05-01 10:39 43.07711 23.37519 34345 ft 428 kts 338°
2026-05-01 10:40 43.13478 23.35469 34353 ft 428 kts 338°
2026-05-01 10:40 43.19256 23.33424 34352 ft 429 kts 338°
2026-05-01 10:41 43.24240 23.32312 34365 ft 439 kts 347°
2026-05-01 10:42 43.33381 23.31224 34368 ft 439 kts 347°
2026-05-01 10:42 43.39474 23.30461 34373 ft 440 kts 347°
2026-05-01 10:43 43.45578 23.29687 34370 ft 441 kts 347°
2026-05-01 10:43 43.51658 23.28922 34372 ft 442 kts 347°
2026-05-01 10:44 43.57793 23.28161 34368 ft 443 kts 348°
2026-05-01 10:44 43.63940 23.27403 34369 ft 444 kts 348°
2026-05-01 10:45 43.70106 23.26645 34366 ft 445 kts 348°
2026-05-01 10:45 43.76279 23.25887 34370 ft 446 kts 348°
2026-05-01 10:46 43.82459 23.25081 34364 ft 444 kts 345°
2026-05-01 10:46 43.88386 23.23080 34363 ft 437 kts 338°
2026-05-01 10:47 43.94259 23.20826 34364 ft 438 kts 338°
2026-05-01 10:47 44.00147 23.18562 34363 ft 439 kts 339°
2026-05-01 10:48 44.05997 23.16311 34360 ft 440 kts 339°
2026-05-01 10:48 44.11895 23.14037 34362 ft 440 kts 339°
2026-05-01 10:49 44.17803 23.11756 34359 ft 441 kts 339°
2026-05-01 10:49 44.23710 23.09465 34362 ft 441 kts 339°
2026-05-01 10:50 44.29633 23.07167 34358 ft 441 kts 339°
2026-05-01 10:50 44.35551 23.04875 34357 ft 441 kts 339°
2026-05-01 10:51 44.41466 23.02570 34356 ft 441 kts 339°
2026-05-01 10:51 44.47375 23.00257 34350 ft 441 kts 339°
2026-05-01 10:52 44.53286 22.97937 34344 ft 441 kts 339°
2026-05-01 10:52 44.59158 22.95632 34343 ft 441 kts 339°
2026-05-01 10:53 44.65062 22.93312 34342 ft 441 kts 339°
2026-05-01 10:53 44.70973 22.90977 34340 ft 441 kts 339°
2026-05-01 10:54 44.76883 22.88645 34337 ft 441 kts 339°
2026-05-01 10:54 44.82798 22.86321 34338 ft 442 kts 339°
2026-05-01 10:55 44.88772 22.84220 34334 ft 445 kts 344°
2026-05-01 10:55 44.94867 22.82625 34328 ft 445 kts 344°
2026-05-01 10:56 45.00966 22.81038 34318 ft 446 kts 344°
2026-05-01 10:56 45.07060 22.79445 34325 ft 446 kts 344°
2026-05-01 10:57 45.13159 22.77843 34326 ft 446 kts 345°
2026-05-01 10:57 45.19212 22.76260 34322 ft 445 kts 345°
2026-05-01 10:58 45.25314 22.74652 34315 ft 446 kts 345°
2026-05-01 10:58 45.31416 22.73040 34323 ft 446 kts 345°
2026-05-01 10:59 45.37524 22.71433 34326 ft 446 kts 345°
2026-05-01 10:59 45.43627 22.69814 34321 ft 446 kts 345°
2026-05-01 11:00 45.49736 22.68188 34322 ft 447 kts 345°
2026-05-01 11:00 45.55848 22.66564 34320 ft 447 kts 345°
2026-05-01 11:01 45.61955 22.64936 34304 ft 447 kts 345°
2026-05-01 11:01 45.68025 22.63315 34305 ft 447 kts 346°
2026-05-01 11:02 45.74139 22.61679 34310 ft 447 kts 346°
2026-05-01 11:02 45.80249 22.60032 34308 ft 447 kts 346°
2026-05-01 11:03 45.86354 22.58380 34306 ft 447 kts 346°
2026-05-01 11:03 45.92468 22.56735 34311 ft 447 kts 347°
2026-05-01 11:04 45.98617 22.55078 34312 ft 447 kts 347°
2026-05-01 11:04 46.04730 22.53424 34321 ft 447 kts 347°
2026-05-01 11:05 46.10796 22.51777 34318 ft 446 kts 347°
2026-05-01 11:05 46.16897 22.50111 34323 ft 446 kts 348°
2026-05-01 11:06 46.22994 22.48448 34320 ft 446 kts 348°
2026-05-01 11:06 46.29080 22.46793 34318 ft 445 kts 348°
2026-05-01 11:07 46.38206 22.44294 34319 ft 445 kts 348°
2026-05-01 11:07 46.44280 22.42615 34317 ft 444 kts 349°
2026-05-01 11:08 46.50344 22.40946 34314 ft 443 kts 349°
2026-05-01 11:09 46.59421 22.38435 34324 ft 442 kts 349°
2026-05-01 11:09 46.65454 22.36764 34328 ft 441 kts 349°
2026-05-01 11:10 46.74475 22.34259 34323 ft 439 kts 349°
2026-05-01 11:10 46.80463 22.32580 34330 ft 438 kts 350°
2026-05-01 11:11 46.86441 22.30918 34336 ft 436 kts 350°
2026-05-01 11:11 46.92400 22.29256 34340 ft 435 kts 350°
2026-05-01 11:12 46.98343 22.27578 34347 ft 434 kts 350°
2026-05-01 11:12 47.04271 22.25904 34343 ft 434 kts 351°
2026-05-01 11:13 47.10191 22.24243 34349 ft 432 kts 351°
2026-05-01 11:13 47.16092 22.22582 34346 ft 431 kts 351°
2026-05-01 11:14 47.21949 22.20924 34344 ft 430 kts 351°
2026-05-01 11:14 47.27825 22.19256 34346 ft 430 kts 351°
2026-05-01 11:15 47.33695 22.17577 34346 ft 429 kts 351°
2026-05-01 11:15 47.39549 22.15902 34348 ft 428 kts 352°
2026-05-01 11:16 47.45395 22.14238 34351 ft 428 kts 352°
2026-05-01 11:16 47.51234 22.12564 34348 ft 427 kts 352°
2026-05-01 11:17 47.57021 22.10623 34352 ft 429 kts 343°
2026-05-01 11:17 47.62373 22.06602 34347 ft 433 kts 334°
2026-05-01 11:18 47.67600 22.02174 34353 ft 433 kts 334°
2026-05-01 11:18 47.72831 21.97735 34349 ft 433 kts 334°
2026-05-01 11:19 47.78057 21.93302 34351 ft 432 kts 335°
2026-05-01 11:19 47.83278 21.88877 34356 ft 432 kts 335°
2026-05-01 11:20 47.85878 21.86663 34558 ft 430 kts 335°
2026-05-01 11:20 47.88474 21.84446 34782 ft 429 kts 334°
2026-05-01 11:20 47.91065 21.82230 35006 ft 429 kts 334°
2026-05-01 11:20 47.93648 21.80019 35233 ft 428 kts 334°
2026-05-01 11:21 47.98844 21.75571 35363 ft 432 kts 334°
2026-05-01 11:21 48.04055 21.71090 35353 ft 432 kts 334°
2026-05-01 11:22 48.09230 21.66633 35353 ft 432 kts 334°
2026-05-01 11:22 48.14439 21.62135 35348 ft 432 kts 334°
2026-05-01 11:23 48.19652 21.57633 35343 ft 432 kts 334°
2026-05-01 11:23 48.24865 21.53116 35339 ft 433 kts 334°
2026-05-01 11:24 48.30081 21.48580 35341 ft 433 kts 334°
2026-05-01 11:25 48.37907 21.41761 35347 ft 434 kts 334°
2026-05-01 11:25 48.45733 21.34921 35339 ft 433 kts 334°
2026-05-01 11:26 48.53942 21.30100 35343 ft 420 kts 357°
2026-05-01 11:27 48.59719 21.30356 35339 ft 415 kts
2026-05-01 11:27 48.65453 21.31305 35339 ft 415 kts
2026-05-01 11:28 48.71199 21.32245 35343 ft 415 kts
2026-05-01 11:28 48.76937 21.33180 35341 ft 415 kts
2026-05-01 11:29 48.85528 21.34586 35349 ft 413 kts
2026-05-01 11:30 48.94101 21.36022 35349 ft 413 kts
2026-05-01 11:30 48.99811 21.36970 35348 ft 413 kts
2026-05-01 11:31 49.05518 21.37923 35352 ft 412 kts
2026-05-01 11:31 49.10261 21.38706 35351 ft 412 kts
2026-05-01 11:32 49.15962 21.39648 35350 ft 412 kts
2026-05-01 11:32 49.22579 21.40756 35346 ft 412 kts
2026-05-01 11:33 49.27348 21.41559 35350 ft 411 kts
2026-05-01 11:33 49.33033 21.42529 35205 ft 410 kts 10°
2026-05-01 11:33 49.35826 21.43002 35328 ft 400 kts 10°
2026-05-01 11:34 49.38573 21.43462 35333 ft 396 kts 10°
2026-05-01 11:34 49.44024 21.44488 35338 ft 393 kts 13°
2026-05-01 11:35 49.49407 21.45918 35336 ft 392 kts 14°
2026-05-01 11:35 49.54737 21.47421 35342 ft 392 kts 14°
2026-05-01 11:36 49.60148 21.48887 35338 ft 392 kts 13°
2026-05-01 11:36 49.65504 21.50306 35341 ft 393 kts 13°
2026-05-01 11:37 49.70896 21.51726 35345 ft 393 kts 13°
2026-05-01 11:37 49.76296 21.53148 35341 ft 394 kts 13°
2026-05-01 11:38 49.81697 21.54584 35346 ft 394 kts 13°
2026-05-01 11:38 49.87095 21.56037 35349 ft 394 kts 13°
2026-05-01 11:39 49.92498 21.57477 35347 ft 394 kts 13°
2026-05-01 11:39 49.97901 21.58922 35345 ft 394 kts 13°
2026-05-01 11:40 50.03300 21.60382 35342 ft 394 kts 13°
2026-05-01 11:40 50.08707 21.61834 35343 ft 394 kts 13°
2026-05-01 11:41 50.14114 21.63275 35341 ft 394 kts 13°
2026-05-01 11:41 50.19516 21.64743 35340 ft 394 kts 13°
2026-05-01 11:42 50.24919 21.66214 35340 ft 394 kts 13°
2026-05-01 11:42 50.30292 21.67674 35339 ft 394 kts 13°
2026-05-01 11:43 50.35695 21.69134 35338 ft 394 kts 13°
2026-05-01 11:43 50.41097 21.70608 35339 ft 394 kts 13°
2026-05-01 11:44 50.49199 21.72827 35337 ft 394 kts 13°
2026-05-01 11:44 50.54599 21.74309 35335 ft 394 kts 13°
2026-05-01 11:45 50.60002 21.75788 35332 ft 394 kts 13°
2026-05-01 11:45 50.65398 21.77283 35330 ft 394 kts 13°
2026-05-01 11:46 50.70795 21.78782 35329 ft 394 kts 13°
2026-05-01 11:46 50.76195 21.80270 35324 ft 394 kts 13°
2026-05-01 11:47 50.81594 21.81764 35323 ft 394 kts 13°
2026-05-01 11:47 50.86995 21.83260 35320 ft 394 kts 13°
2026-05-01 11:48 50.92399 21.84759 35324 ft 394 kts 13°
2026-05-01 11:48 50.97800 21.86267 35324 ft 394 kts 13°
2026-05-01 11:49 51.03209 21.87782 35325 ft 394 kts 13°
2026-05-01 11:49 51.08614 21.89297 35324 ft 395 kts 13°
2026-05-01 11:50 51.14023 21.90820 35323 ft 395 kts 13°
2026-05-01 11:50 51.19433 21.92331 35327 ft 395 kts 13°
2026-05-01 11:51 51.24846 21.93822 35330 ft 395 kts 12°
2026-05-01 11:51 51.30260 21.95305 35328 ft 395 kts 12°
2026-05-01 11:52 51.35676 21.96802 35330 ft 395 kts 12°
2026-05-01 11:52 51.41092 21.98315 35323 ft 395 kts 12°
2026-05-01 11:53 51.46467 21.99841 35333 ft 395 kts 13°
2026-05-01 11:53 51.51877 22.01410 35324 ft 395 kts 13°
2026-05-01 11:54 51.57284 22.02988 35329 ft 395 kts 13°
2026-05-01 11:54 51.62693 22.04571 35328 ft 395 kts 13°
2026-05-01 11:55 51.68105 22.06146 35322 ft 395 kts 13°
2026-05-01 11:55 51.73523 22.07711 35328 ft 395 kts 13°
2026-05-01 11:56 51.78937 22.09287 35326 ft 395 kts 13°
2026-05-01 11:56 51.84347 22.10874 35325 ft 395 kts 13°
2026-05-01 11:57 51.89763 22.12460 35322 ft 395 kts 13°
2026-05-01 11:57 51.95178 22.14049 35317 ft 395 kts 13°
2026-05-01 11:58 52.00589 22.15646 35320 ft 395 kts 13°
2026-05-01 11:59 52.08704 22.18059 35316 ft 395 kts 13°
2026-05-01 11:59 52.14111 22.19669 35316 ft 395 kts 12°
2026-05-01 12:00 52.22196 22.22329 35316 ft 395 kts 14°
2026-05-01 12:01 52.30206 22.25226 35317 ft 395 kts 14°
2026-05-01 12:01 52.35578 22.27124 35321 ft 395 kts 14°
2026-05-01 12:02 52.40953 22.29013 35325 ft 395 kts 14°
2026-05-01 12:02 52.46330 22.30908 35323 ft 395 kts 14°
2026-05-01 12:03 52.51708 22.32813 35326 ft 395 kts 14°
2026-05-01 12:03 52.57082 22.34729 35325 ft 395 kts 14°
2026-05-01 12:04 52.62457 22.36646 35328 ft 395 kts 14°
2026-05-01 12:04 52.67834 22.38566 35329 ft 395 kts 14°
2026-05-01 12:05 52.73208 22.40490 35330 ft 395 kts 14°
2026-05-01 12:05 52.81269 22.43392 35326 ft 395 kts 14°
2026-05-01 12:06 52.86640 22.45329 35324 ft 395 kts 14°
2026-05-01 12:06 52.92011 22.47270 35322 ft 395 kts 14°
2026-05-01 12:07 52.97380 22.49212 35321 ft 395 kts 14°
2026-05-01 12:07 53.02750 22.51165 35320 ft 395 kts 14°
2026-05-01 12:08 53.08155 22.53137 35319 ft 395 kts 14°
2026-05-01 12:08 53.13492 22.55083 35318 ft 395 kts 14°
2026-05-01 12:09 53.18865 22.57040 35322 ft 395 kts 14°
2026-05-01 12:09 53.24239 22.59010 35318 ft 395 kts 14°
2026-05-01 12:10 53.32304 22.61995 35322 ft 396 kts 14°
2026-05-01 12:11 53.40408 22.64998 35325 ft 396 kts 14°
2026-05-01 12:11 53.45764 22.66980 35323 ft 396 kts 14°
2026-05-01 12:12 53.51145 22.68976 35327 ft 396 kts 14°
2026-05-01 12:12 53.56531 22.70983 35329 ft 396 kts 14°
2026-05-01 12:13 53.61919 22.72997 35330 ft 396 kts 14°
2026-05-01 12:13 53.67307 22.75013 35329 ft 397 kts 14°
2026-05-01 12:14 53.72697 22.77032 35328 ft 397 kts 14°
2026-05-01 12:14 53.78091 22.79073 35328 ft 397 kts 14°
2026-05-01 12:15 53.83485 22.81113 35333 ft 398 kts 14°
2026-05-01 12:15 53.88888 22.83156 35333 ft 398 kts 14°
2026-05-01 12:16 53.93417 22.84870 35334 ft 398 kts 14°
2026-05-01 12:16 53.98827 22.86928 35335 ft 398 kts 14°
2026-05-01 12:17 54.04040 22.89930 35333 ft 397 kts 30°
2026-05-01 12:17 54.08133 22.96199 35329 ft 402 kts 51°
2026-05-01 12:18 54.09547 23.00349 35329 ft 408 kts 62°
2026-05-01 12:18 54.10658 23.04810 35334 ft 409 kts 62°
2026-05-01 12:18 54.12864 23.13752 35336 ft 409 kts 62°
2026-05-01 12:19 54.15066 23.22709 35339 ft 410 kts 62°
2026-05-01 12:19 54.17256 23.31680 35338 ft 409 kts 62°
2026-05-01 12:20 54.19341 23.40734 35341 ft 413 kts 69°
2026-05-01 12:20 54.20406 23.50465 35341 ft 418 kts 75°
2026-05-01 12:21 54.21355 23.60260 35343 ft 418 kts 74°
2026-05-01 12:21 54.22303 23.70059 35343 ft 418 kts 74°
2026-05-01 12:22 54.23243 23.79851 35342 ft 417 kts 75°
2026-05-01 12:22 54.24162 23.89637 35341 ft 417 kts 75°
2026-05-01 12:23 54.25078 23.99424 35339 ft 416 kts 75°
2026-05-01 12:23 54.25990 24.09202 35338 ft 416 kts 75°
2026-05-01 12:24 54.26895 24.18979 35337 ft 416 kts 75°
2026-05-01 12:24 54.27784 24.28769 35335 ft 416 kts 75°
2026-05-01 12:25 54.29100 24.43462 35335 ft 416 kts 75°
2026-05-01 12:26 54.29971 24.53256 35336 ft 416 kts 75°
2026-05-01 12:26 54.31259 24.67925 35329 ft 415 kts 75°
2026-05-01 12:27 54.32534 24.82599 35326 ft 415 kts 75°
2026-05-01 12:28 54.33788 24.97280 35327 ft 415 kts 75°
2026-05-01 12:29 54.35027 25.11947 35323 ft 414 kts 75°
2026-05-01 12:29 54.36239 25.26546 35325 ft 414 kts 75°
2026-05-01 12:30 54.37438 25.41231 35325 ft 414 kts 75°
2026-05-01 12:31 54.38220 25.51025 35325 ft 415 kts 75°
2026-05-01 12:31 54.38996 25.60826 35320 ft 415 kts 75°
2026-05-01 12:32 54.39727 25.70638 35318 ft 415 kts 76°
2026-05-01 12:32 54.40783 25.85352 35316 ft 414 kts 76°
2026-05-01 12:33 54.41486 25.95151 35317 ft 413 kts 76°
2026-05-01 12:33 54.42178 26.04941 35313 ft 413 kts 76°
2026-05-01 12:34 54.42860 26.14729 35309 ft 413 kts 76°
2026-05-01 12:34 54.43537 26.24460 35306 ft 413 kts 76°
2026-05-01 12:35 54.44215 26.34320 35308 ft 413 kts 76°
2026-05-01 12:35 54.44877 26.44119 35311 ft 413 kts 76°
2026-05-01 12:36 54.45530 26.53926 35314 ft 413 kts 76°
2026-05-01 12:36 54.46172 26.63736 35315 ft 413 kts 76°
2026-05-01 12:37 54.46801 26.73475 35312 ft 413 kts 76°
2026-05-01 12:37 54.47432 26.83273 35309 ft 413 kts 76°
2026-05-01 12:38 54.48049 26.93086 35308 ft 412 kts 76°
2026-05-01 12:38 54.48661 27.02883 35306 ft 412 kts 76°
2026-05-01 12:39 54.49272 27.12694 35308 ft 412 kts 76°
2026-05-01 12:39 54.49871 27.22493 35300 ft 412 kts 76°
2026-05-01 12:40 54.50460 27.32294 35303 ft 412 kts 76°
2026-05-01 12:40 54.51037 27.42041 35301 ft 412 kts 76°
2026-05-01 12:41 54.51609 27.51844 35301 ft 412 kts 76°
2026-05-01 12:41 54.52173 27.61642 35297 ft 411 kts 76°
2026-05-01 12:42 54.52730 27.71447 35299 ft 412 kts 76°
2026-05-01 12:42 54.53272 27.81256 35297 ft 412 kts 77°
2026-05-01 12:43 54.53815 27.91075 35295 ft 412 kts 76°
2026-05-01 12:43 54.54352 28.00887 35291 ft 411 kts 77°
2026-05-01 12:44 54.54879 28.10700 35287 ft 411 kts 77°
2026-05-01 12:45 54.55902 28.30289 35291 ft 412 kts 77°
2026-05-01 12:45 54.56399 28.40124 35281 ft 412 kts 77°
2026-05-01 12:46 54.56887 28.49965 35290 ft 412 kts 77°
2026-05-01 12:46 54.57374 28.59821 35282 ft 413 kts 77°
2026-05-01 12:47 54.57857 28.69683 35280 ft 413 kts 77°
2026-05-01 12:47 54.58330 28.79554 35284 ft 413 kts 77°
2026-05-01 12:48 54.58792 28.89434 35282 ft 413 kts 77°
2026-05-01 12:48 54.59243 28.99314 35276 ft 413 kts 77°
2026-05-01 12:49 54.59684 29.09190 35279 ft 413 kts 77°
2026-05-01 12:49 54.60122 29.19008 35275 ft 413 kts 77°
2026-05-01 12:50 54.60558 29.28966 35276 ft 414 kts 77°
2026-05-01 12:50 54.60988 29.38810 35275 ft 414 kts 78°
2026-05-01 12:51 54.61404 29.48728 35272 ft 415 kts 78°
2026-05-01 12:52 54.61878 29.60349 35277 ft 415 kts 78°
2026-05-01 12:52 54.62604 29.78565 35277 ft 416 kts 78°
2026-05-01 12:53 54.63108 29.91833 35281 ft 417 kts 78°
2026-05-01 12:54 54.63542 30.03497 35287 ft 417 kts 78°
2026-05-01 12:54 54.64084 30.18487 35285 ft 417 kts 78°
2026-05-01 12:55 54.64615 30.33480 35281 ft 417 kts 79°
2026-05-01 12:56 54.64955 30.43483 35287 ft 418 kts 79°
2026-05-01 12:56 54.65291 30.53495 35284 ft 418 kts 79°
2026-05-01 12:57 54.65619 30.63516 35285 ft 418 kts 79°
2026-05-01 12:57 54.66037 30.76883 35286 ft 419 kts 79°
2026-05-01 12:59 54.69160 31.16927 35280 ft 406 kts 66°
2026-05-01 13:00 54.71661 31.30945 35274 ft 407 kts 66°
2026-05-01 13:01 54.74142 31.44964 35287 ft 407 kts 66°
2026-05-01 13:02 54.76620 31.59018 35289 ft 407 kts 66°
2026-05-01 13:07 54.94249 32.62430 35273 ft 405 kts 67°
2026-05-01 13:08 54.95807 32.71859 35267 ft 405 kts 67°
2026-05-01 13:08 54.97343 32.81223 35275 ft 405 kts 68°
2026-05-01 13:09 54.98880 32.90651 35260 ft 405 kts 67°
2026-05-01 13:09 55.00124 32.98309 35260 ft 405 kts 68°
2026-05-01 13:10 55.01647 33.07744 35258 ft 405 kts 68°
2026-05-01 13:10 55.03164 33.17179 35259 ft 405 kts 68°
2026-05-01 13:11 55.04678 33.26645 35258 ft 405 kts 68°
2026-05-01 13:11 55.06174 33.36114 35257 ft 405 kts 68°
2026-05-01 13:12 55.07671 33.45608 35260 ft 405 kts 68°
2026-05-01 13:12 55.09149 33.55027 35256 ft 405 kts 68°
2026-05-01 13:13 55.10638 33.64521 35255 ft 406 kts 68°
2026-05-01 13:13 55.12124 33.74033 35254 ft 406 kts 68°
2026-05-01 13:14 55.13599 33.83573 35255 ft 407 kts 68°
2026-05-01 13:14 55.15066 33.93132 35250 ft 408 kts 69°
2026-05-01 13:15 55.16533 34.02727 34782 ft 410 kts 68°
2026-05-01 13:15 55.17260 34.07532 34283 ft 407 kts 68°
2026-05-01 13:15 55.17978 34.12299 33694 ft 404 kts 68°
2026-05-01 13:15 55.18690 34.17032 33100 ft 401 kts 68°
2026-05-01 13:16 55.19397 34.21738 32523 ft 399 kts 68°
2026-05-01 13:16 55.20100 34.26426 31952 ft 398 kts 67°
2026-05-01 13:16 55.20799 34.31098 31393 ft 396 kts 67°
2026-05-01 13:17 55.22882 34.45049 29692 ft 394 kts 67°
2026-05-01 13:17 55.23571 34.49697 29062 ft 396 kts 67°
2026-05-01 13:18 55.24954 34.59054 27860 ft 402 kts 68°
2026-05-01 13:18 55.25654 34.63823 27272 ft 406 kts 68°
2026-05-01 13:18 55.26355 34.68636 26693 ft 409 kts 69°
2026-05-01 13:18 55.27061 34.73490 26143 ft 413 kts 69°
2026-05-01 13:19 55.27774 34.78398 25578 ft 417 kts 69°
2026-05-01 13:19 55.28493 34.83344 25039 ft 421 kts 70°
2026-05-01 13:19 55.29946 34.93372 23992 ft 427 kts 70°
2026-05-01 13:20 55.30670 34.98423 23405 ft 427 kts 71°
2026-05-01 13:20 55.31389 35.03466 22789 ft 425 kts 71°
2026-05-01 13:20 55.32101 35.08496 22184 ft 423 kts 71°
2026-05-01 13:21 55.33508 35.18471 21014 ft 419 kts 72°
2026-05-01 13:21 55.34205 35.23427 20446 ft 416 kts 72°
2026-05-01 13:21 55.34896 35.28341 19880 ft 410 kts 72°
2026-05-01 13:21 55.35570 35.33158 19336 ft 402 kts 72°
2026-05-01 13:22 55.36228 35.37885 18793 ft 395 kts 72°
2026-05-01 13:22 55.36720 35.41435 18369 ft 386 kts 72°
2026-05-01 13:23 55.36923 35.42836 18196 ft 380 kts 71°
2026-05-01 13:23 55.37574 35.47325 17591 ft 377 kts 72°
2026-05-01 13:23 55.38181 35.51700 17230 ft 369 kts 72°
2026-05-01 13:24 55.38671 35.56079 16882 ft 364 kts 80°
2026-05-01 13:24 55.38591 35.60562 16540 ft 362 kts 94°
2026-05-01 13:24 55.38098 35.64868 16200 ft 355 kts 96°
2026-05-01 13:25 55.37125 35.73203 15530 ft 341 kts 96°
2026-05-01 13:25 55.36654 35.77243 15203 ft 334 kts 96°
2026-05-01 13:25 55.36192 35.81201 14877 ft 327 kts 96°
2026-05-01 13:25 55.35738 35.85080 14557 ft 322 kts 96°
2026-05-01 13:26 55.35294 35.88907 14274 ft 318 kts 96°
2026-05-01 13:26 55.34855 35.92704 14201 ft 317 kts 96°
2026-05-01 13:26 55.34417 35.96516 14145 ft 319 kts 96°
2026-05-01 13:26 55.33979 36.00326 13892 ft 317 kts 96°
2026-05-01 13:27 55.33541 36.04111 13608 ft 316 kts 96°
2026-05-01 13:27 55.33103 36.07891 13332 ft 316 kts 97°
2026-05-01 13:27 55.32216 36.15424 12793 ft 315 kts 97°
2026-05-01 13:28 55.31475 36.21668 12373 ft 313 kts 98°
2026-05-01 13:28 55.30881 36.26670 12006 ft 313 kts 98°
2026-05-01 13:29 55.30142 36.32876 11483 ft 312 kts 98°
2026-05-01 13:29 55.29252 36.40305 10987 ft 307 kts 99°
2026-05-01 13:30 55.27463 36.54175 10720 ft 290 kts 100°
2026-05-01 13:31 55.26658 36.61087 10588 ft 288 kts 93°
2026-05-01 13:31 55.27144 36.71494 10393 ft 286 kts 81°
2026-05-01 13:32 55.27635 36.78413 10277 ft 286 kts 81°
2026-05-01 13:33 55.28360 36.88790 10082 ft 286 kts 81°
2026-05-01 13:33 55.28870 36.96103 9794 ft 284 kts 81°
2026-05-01 13:34 55.29346 37.02991 9517 ft 284 kts 81°
2026-05-01 13:34 55.29821 37.09923 8726 ft 285 kts 81°
2026-05-01 13:35 55.30287 37.16831 7973 ft 283 kts 82°
2026-05-01 13:35 55.30516 37.20243 7454 ft 281 kts 82°
2026-05-01 13:35 55.30968 37.27032 6359 ft 278 kts 82°
2026-05-01 13:36 55.31185 37.30300 6206 ft 261 kts 82°
2026-05-01 13:36 55.31431 37.33368 6016 ft 247 kts 72°
2026-05-01 13:36 55.33436 37.37749 5686 ft 232 kts 24°
2026-05-01 13:37 55.34959 37.38637 5560 ft 231 kts 13°
2026-05-01 13:37 55.36511 37.39374 5429 ft 231 kts 13°
2026-05-01 13:37 55.38062 37.40113 5297 ft 231 kts 13°
2026-05-01 13:37 55.39612 37.40856 5165 ft 230 kts 13°
2026-05-01 13:38 55.42677 37.42332 4909 ft 230 kts 13°
2026-05-01 13:38 55.44221 37.43071 4779 ft 230 kts 13°
2026-05-01 13:38 55.45761 37.43804 4639 ft 229 kts 13°
2026-05-01 13:39 55.47299 37.44539 4512 ft 229 kts 13°
2026-05-01 13:39 55.48807 37.45265 4368 ft 218 kts 13°
2026-05-01 13:39 55.50250 37.45963 4235 ft 213 kts 13°
2026-05-01 13:39 55.51673 37.46652 4097 ft 212 kts 13°
2026-05-01 13:40 55.53047 37.47321 3996 ft 196 kts 13°
2026-05-01 13:40 55.54300 37.47932 3877 ft 176 kts 13°
2026-05-01 13:40 55.55418 37.48478 3733 ft 159 kts 12°
2026-05-01 13:40 55.56455 37.48982 3585 ft 152 kts 12°
2026-05-01 13:41 55.57461 37.49469 3545 ft 149 kts 12°
2026-05-01 13:41 55.58459 37.49926 3507 ft 148 kts
2026-05-01 13:41 55.59472 37.49953 3468 ft 145 kts 349°
2026-05-01 13:41 55.60442 37.49453 3194 ft 146 kts 336°
2026-05-01 13:42 55.61360 37.48805 2888 ft 143 kts 336°
2026-05-01 13:42 55.62251 37.48100 2741 ft 139 kts 324°
2026-05-01 13:42 55.62918 37.46868 2705 ft 140 kts 299°
2026-05-01 13:42 55.63207 37.45238 2617 ft 141 kts 275°
2026-05-01 13:43 55.63044 37.43539 2486 ft 142 kts 250°
2026-05-01 13:43 55.62681 37.41918 2309 ft 141 kts 251°
2026-05-01 13:43 55.62322 37.40307 2120 ft 141 kts 251°
2026-05-01 13:43 55.61963 37.38695 1934 ft 141 kts 251°
2026-05-01 13:44 55.61607 37.37093 1735 ft 140 kts 250°
2026-05-01 13:44 55.61249 37.35487 1539 ft 141 kts 250°
2026-05-01 13:44 55.60888 37.33863 1303 ft 142 kts 249°
2026-05-01 13:44 55.60518 37.32228 1108 ft 144 kts 248°
2026-05-01 13:45 55.60148 37.30574 911 ft 145 kts 248°
2026-05-01 13:45 55.59775 37.28910 730 ft 146 kts 248°
2026-05-01 13:45 55.59426 37.27355 674 ft 117 kts 248°
2026-05-01 13:45 55.59188 37.26299 666 ft 68 kts 248°
2026-05-01 13:46 55.59068 37.25757 668 ft 38 kts 249°
2026-05-01 13:46 55.59019 37.25404 662 ft 27 kts 267°
2026-05-01 13:46 55.59036 37.25109 659 ft 10 kts 282°
2026-05-01 13:46 55.59093 37.25034 659 ft 11 kts 339°
2026-05-01 13:47 55.59150 37.25095 659 ft 12 kts 66°
2026-05-01 13:47 55.59193 37.25286 662 ft 19 kts 68°
2026-05-01 13:47 55.59241 37.25497 665 ft 18 kts 68°
2026-05-01 13:47 55.59285 37.25699 668 ft 18 kts 69°
2026-05-01 13:48 55.59332 37.25913 668 ft 19 kts 68°
2026-05-01 13:48 55.59386 37.26141 667 ft 21 kts 67°
2026-05-01 13:48 55.59435 37.26364 669 ft 16 kts 68°
2026-05-01 13:48 55.59480 37.26561 669 ft 18 kts 68°
2026-05-01 13:49 55.59515 37.26720 669 ft 14 kts 68°
2026-05-01 13:49 55.59567 37.26872 669 ft 15 kts 55°
2026-05-01 13:49 55.59643 37.27019 669 ft 17 kts 47°
2026-05-01 13:49 55.59685 37.27098 669 ft 7 kts 46°
2026-05-01 13:50 55.59735 37.27192 670 ft 14 kts 46°
2026-05-01 13:50 55.59822 37.27351 674 ft 20 kts 46°
2026-05-01 13:50 55.59916 37.27524 679 ft 19 kts 46°
2026-05-01 13:50 55.59993 37.27698 680 ft 16 kts 48°
2026-05-01 13:51 55.60068 37.27806 678 ft 8 kts 45°
2026-05-01 13:51 55.60111 37.27879 679 ft 9 kts 34°
2026-05-01 13:51 55.60204 37.27845 680 ft 21 kts 348°
2026-05-01 13:51 55.60274 37.27889 680 ft 7 kts 79°
2026-05-01 13:52 55.60273 37.27956 679 ft 2 kts 93°
2026-05-01 13:52 55.60273 37.27977 680 ft 0 kts 92°